Location: Carson
(33.8314°N, 118.2820°W)
Time: 13:46:46
(UTC+00:00)

MOS 1 Rocket - Pass Details

Date: 23 November 2020
Orbit: 614 x 831 km, 97.4° (Epoch: 21 January)

Event Time Altitude Azimuth Distance (km) Brightness Sun altitude
Rises 13:23:36 0° 151° (SSE) 2,950 7.2 -14.5°
Reaches altitude 10° 13:25:50 10° 145° (SE) 2,070 6.5 -14.0°
Maximum altitude 13:30:06 44° 74° (ENE) 952 4.5 -13.2°
Drops below altitude 10° 13:34:40 10° 3° (N) 2,207 5.7 -12.2°
Sets 13:37:06 0° 357° (N) 3,169 6.5 -11.8°
